Tracking 29892 objects as of 21-Nov-2024
HD Live streaming from Space Station
objects crossing your sky now

COSMOS 2308 (GLONASS)

Track COSMOS 2308 (GLONASS) now!
COSMOS 2308 (GLONASS) is classified as:


NORAD ID: 23512
Int'l Code: 1995-009B
Perigee: 19,119.4 km
Apogee: 19,155.0 km
Inclination: 64.4 °
Period: 675.7 minutes
Semi major axis: 25508 km
RCS: 3.4301 m2 (large)
Launch date: March 7, 1995
Source: Commonwealth of Independent States (former USSR) (CIS)
Launch site: TYURATAM MISSILE AND SPACE COMPLEX (TTMTR)
Your satellite tracking list
Your tracking list is empty




NASA's NSSDC Master Catalog

Two Line Element Set (TLE):
1 23512U 95009B   24324.60309189 -.00000046  00000-0  00000+0 0  9997
2 23512  64.3777 321.4446 0006972 309.0026 222.8700  2.13099691231217
Source of the keplerian elements: AFSPC